GEFSMA_prec_meanprecacc_336.txt.gz
Total_Precipitation_Accumulation
3.16 3.37 3.40 3.63 3.57 3.54 3.37 3.13 2.73 2.58 2.44 2.19 1.97 1.95 1.93 1.86 1.92 1.99 2.12 2.17 2.21 2.48 2.93 3.21 3.20 3.12 3.19 3.21 3.28 3.27 3.17 3.06 2.92 2.75 2.62 2.52 2.49 2.57 2.61 2.70 2.58 2.47 2.42
3.65 3.73 3.76 3.96 3.80 3.54 3.48 3.29 2.94 2.76 2.58 2.43 2.13 1.96 1.98 2.19 2.13 2.05 2.18 2.23 2.20 2.28 2.66 3.15 3.46 3.62 3.72 3.76 3.64 3.39 3.31 3.25 3.26 3.12 2.93 2.70 2.62 2.54 2.49 2.64 2.74 2.63 2.57
4.21 4.06 4.19 4.32 4.12 3.79 3.74 3.64 3.48 3.11 2.88 2.81 2.61 2.34 2.21 2.29 2.37 2.47 2.48 2.48 2.49 2.46 2.65 2.98 3.31 3.57 3.77 3.99 3.92 3.67 3.50 3.48 3.51 3.46 3.33 3.04 2.86 2.70 2.64 2.60 2.66 2.73 2.59
4.71 4.75 4.57 4.42 4.26 4.02 3.95 4.08 3.81 3.43 3.31 3.32 3.12 2.73 2.42 2.51 2.60 2.57 2.58 2.63 2.80 2.71 2.74 2.76 2.93 3.21 3.49 3.80 3.99 4.03 3.91 3.87 3.76 3.62 3.52 3.40 3.25 3.05 2.83 2.81 2.73 2.71 2.65
4.84 4.98 4.93 4.79 4.58 4.42 4.34 4.01 3.92 3.76 3.69 3.60 3.15 2.92 2.57 2.47 2.57 2.50 2.56 2.63 2.86 2.96 2.95 2.71 2.82 3.16 3.38 3.67 3.98 4.25 4.35 4.31 4.10 3.98 3.89 3.80 3.66 3.42 3.15 2.96 2.87 2.85 2.85
5.23 5.27 5.12 5.00 4.91 4.83 4.68 4.44 4.33 4.20 3.90 3.74 3.26 3.00 2.72 2.47 2.45 2.46 2.41 2.49 2.57 2.61 2.70 2.73 2.78 2.73 2.99 3.34 3.73 4.14 4.49 4.76 4.54 4.22 4.06 4.07 3.98 3.72 3.53 3.33 3.17 3.09 3.08
5.68 5.60 5.47 5.34 5.10 4.91 4.78 4.64 4.46 4.26 3.91 3.77 3.60 3.27 2.79 2.41 2.37 2.34 2.25 2.31 2.34 2.31 2.43 2.53 2.74 2.72 2.61 2.89 3.13 3.57 4.04 4.59 4.82 4.67 4.43 4.31 4.22 4.01 3.75 3.51 3.41 3.37 3.27
6.28 6.03 6.05 5.76 5.38 5.13 4.83 4.58 4.38 4.07 3.70 3.68 3.70 3.79 3.31 2.85 2.26 1.92 1.96 1.99 1.98 2.01 2.12 2.24 2.38 2.50 2.44 2.54 2.57 2.88 3.24 3.63 4.13 4.44 4.48 4.39 4.26 4.06 3.89 3.72 3.54 3.51 3.56
6.30 5.95 5.76 5.65 5.37 4.85 4.58 4.41 4.17 3.97 3.75 3.60 3.52 3.77 3.54 3.13 2.59 2.19 1.91 1.75 1.79 1.92 1.98 2.10 2.16 2.18 2.14 2.19 2.21 2.38 2.58 2.74 3.22 3.77 4.08 4.09 4.04 3.90 3.82 3.82 3.80 3.68 3.61
5.86 5.52 5.32 5.04 4.79 4.45 4.25 3.94 3.83 3.83 3.80 3.58 3.46 3.23 2.99 2.83 2.85 2.60 2.22 1.96 1.88 1.89 1.86 1.83 1.87 1.97 2.02 2.04 2.11 2.12 2.20 2.31 2.62 2.99 3.37 3.55 3.58 3.56 3.52 3.51 3.55 3.56 3.62
5.25 4.79 4.53 4.28 4.02 3.78 3.56 3.33 3.30 3.38 3.42 3.36 3.30 3.20 3.06 2.94 2.76 2.63 2.50 2.40 2.24 2.05 1.92 1.84 1.82 1.82 1.82 1.87 1.93 1.97 2.09 2.06 2.14 2.33 2.61 2.86 3.00 3.14 3.23 3.29 3.34 3.43 3.57
4.55 4.18 3.83 3.57 3.26 3.04 2.88 2.80 2.73 2.73 2.84 2.87 2.93 2.93 2.93 3.01 2.91 2.87 2.68 2.53 2.46 2.26 2.08 1.94 1.86 1.82 1.77 1.84 1.90 2.09 1.98 2.01 2.07 2.05 2.15 2.31 2.42 2.62 2.81 3.03 3.21 3.40 3.63
3.51 3.25 2.99 2.81 2.56 2.46 2.44 2.47 2.46 2.45 2.48 2.52 2.60 2.67 2.69 2.70 2.72 2.88 3.01 2.79 2.53 2.24 2.14 1.98 1.83 1.81 1.78 1.85 1.87 1.92 1.76 1.71 1.75 1.76 1.87 2.01 2.11 2.26 2.42 2.57 2.74 2.92 3.10
2.48 2.37 2.34 2.15 2.05 2.04 2.00 2.12 2.14 2.18 2.25 2.24 2.20 2.39 2.49 2.41 2.39 2.51 2.75 2.83 2.71 2.42 2.14 1.95 1.77 1.71 1.73 1.71 1.82 1.80 1.58 1.64 1.57 1.53 1.53 1.62 1.73 1.84 1.99 2.10 2.28 2.43 2.49
2.10 2.00 1.98 1.96 1.90 1.92 1.87 1.91 1.92 1.85 1.95 2.01 1.98 2.10 2.20 2.14 2.09 2.10 2.25 2.44 2.64 2.59 2.17 1.80 1.70 1.63 1.61 1.60 1.71 1.45 1.46 1.56 1.47 1.38 1.33 1.33 1.44 1.53 1.61 1.64 1.74 1.89 2.06
2.03 1.92 1.83 1.80 1.75 1.69 1.66 1.77 1.78 1.74 1.76 1.76 1.77 1.87 1.91 1.88 1.90 1.86 1.91 2.02 2.23 2.41 2.24 1.70 1.53 1.49 1.56 1.42 1.50 1.30 1.36 1.40 1.28 1.20 1.12 1.08 1.10 1.24 1.31 1.30 1.36 1.47 1.66
1.77 1.73 1.54 1.51 1.48 1.43 1.43 1.54 1.57 1.61 1.62 1.60 1.54 1.54 1.60 1.67 1.79 1.69 1.72 1.80 1.93 2.12 2.19 1.78 1.57 1.54 1.60 1.60 1.57 1.49 1.34 1.22 1.15 1.17 1.06 1.02 0.99 1.03 1.12 1.13 1.15 1.20 1.36
1.55 1.53 1.44 1.33 1.25 1.28 1.39 1.41 1.35 1.36 1.43 1.43 1.43 1.44 1.43 1.52 1.65 1.66 1.67 1.66 1.76 1.90 2.00 1.93 1.72 1.60 1.57 1.57 1.57 1.56 1.30 1.08 1.04 1.15 1.07 1.00 1.00 0.98 1.01 1.06 1.06 1.06 1.05
1.39 1.36 1.36 1.34 1.31 1.24 1.26 1.26 1.24 1.29 1.33 1.36 1.39 1.38 1.34 1.46 1.51 1.51 1.53 1.53 1.58 1.62 1.74 1.71 1.53 1.49 1.44 1.43 1.59 1.57 1.45 1.40 1.02 0.97 0.99 0.92 0.96 0.95 0.92 0.94 0.96 0.97 0.92
1.27 1.18 1.19 1.24 1.24 1.20 1.16 1.15 1.16 1.28 1.40 1.34 1.26 1.27 1.30 1.29 1.30 1.37 1.38 1.47 1.57 1.68 1.72 1.67 1.51 1.39 1.41 1.43 1.68 1.75 1.67 1.49 1.25 0.92 0.95 0.90 0.90 0.87 0.86 0.90 0.86 0.87 0.90
1.24 1.22 1.19 1.17 1.15 1.12 1.05 1.07 1.09 1.12 1.29 1.30 1.26 1.22 1.16 1.16 1.16 1.20 1.16 1.26 1.44 1.62 1.68 1.71 1.60 1.48 1.48 1.65 1.66 1.57 1.56 1.45 1.28 1.04 1.04 0.96 0.97 1.12 1.31 1.37 1.16 0.93 0.91
1.20 1.24 1.23 1.18 1.09 0.96 1.04 1.06 1.00 1.07 1.19 1.24 1.25 1.19 1.10 1.03 0.97 0.97 0.94 1.00 1.20 1.41 1.59 1.74 1.68 1.60 1.54 1.65 1.74 1.66 1.69 1.72 1.56 1.20 1.22 1.13 1.12 1.49 1.87 2.05 1.64 1.08 0.95
1.16 1.22 1.24 1.24 1.14 1.05 1.08 1.03 1.02 1.02 1.11 1.23 1.27 1.24 1.04 0.89 1.00 0.97 0.96 0.94 0.98 1.08 1.34 1.65 1.79 1.66 1.62 1.73 1.88 1.84 1.84 1.84 1.71 1.42 1.49 1.45 1.37 1.65 1.66 1.75 1.70 1.27 1.14
1.17 1.26 1.31 1.26 1.18 1.08 1.07 1.02 1.01 0.99 1.01 1.09 1.14 1.16 1.24 1.22 1.09 1.05 0.98 1.00 1.06 1.11 1.16 1.25 1.49 1.54 1.44 1.52 1.72 1.76 1.79 1.76 1.67 1.60 1.66 1.71 1.53 1.61 1.49 1.80 1.98 1.79 1.57
1.19 1.23 1.23 1.26 1.24 1.16 1.05 0.99 1.03 0.98 0.95 0.94 0.93 0.98 1.08 1.15 1.08 0.99 0.98 1.09 1.17 1.19 1.06 1.14 1.21 1.35 1.43 1.38 1.41 1.54 1.78 1.94 1.90 1.67 1.61 1.71 1.66 1.70 1.78 2.07 2.07 2.04 1.90
1.18 1.16 1.19 1.22 1.23 1.19 1.00 0.86 0.92 0.89 0.92 0.92 0.98 1.01 0.97 0.93 0.97 0.91 0.94 1.15 1.25 1.23 1.29 1.44 1.58 1.67 1.61 1.53 1.39 1.48 1.79 2.02 2.02 1.92 1.64 1.78 1.91 2.07 2.34 2.36 2.23 2.03 1.97

GEFSMA_prec_meanprecacc_342.txt.gz
Total_Precipitation_Accumulation
3.21 3.42 3.46 3.71 3.66 3.62 3.48 3.22 2.81 2.66 2.52 2.26 2.04 2.01 1.97 1.91 1.96 2.03 2.15 2.19 2.23 2.50 2.95 3.25 3.23 3.15 3.21 3.23 3.31 3.30 3.22 3.11 2.98 2.81 2.68 2.57 2.54 2.62 2.66 2.75 2.62 2.51 2.46
3.71 3.78 3.81 4.02 3.86 3.59 3.56 3.35 3.00 2.83 2.66 2.51 2.19 2.01 2.02 2.24 2.16 2.08 2.20 2.26 2.22 2.31 2.68 3.18 3.48 3.64 3.74 3.79 3.67 3.43 3.35 3.30 3.31 3.18 2.98 2.75 2.67 2.59 2.54 2.69 2.78 2.66 2.60
4.26 4.11 4.25 4.38 4.18 3.86 3.82 3.71 3.54 3.19 2.96 2.88 2.69 2.39 2.25 2.34 2.42 2.50 2.50 2.50 2.52 2.50 2.69 3.01 3.34 3.60 3.81 4.02 3.96 3.71 3.54 3.52 3.54 3.51 3.39 3.08 2.90 2.75 2.68 2.64 2.69 2.76 2.61
4.75 4.80 4.63 4.49 4.34 4.11 4.04 4.16 3.89 3.53 3.39 3.39 3.17 2.79 2.47 2.57 2.68 2.62 2.61 2.65 2.82 2.74 2.78 2.80 2.97 3.25 3.54 3.84 4.03 4.06 3.95 3.90 3.79 3.65 3.57 3.44 3.29 3.10 2.87 2.85 2.76 2.73 2.67
4.87 5.03 4.99 4.88 4.68 4.52 4.42 4.10 4.01 3.84 3.76 3.65 3.19 2.96 2.63 2.52 2.63 2.58 2.61 2.66 2.88 2.98 2.97 2.74 2.87 3.21 3.43 3.71 4.02 4.30 4.39 4.34 4.14 4.02 3.93 3.83 3.69 3.45 3.18 2.99 2.89 2.87 2.86
5.25 5.29 5.15 5.05 4.98 4.91 4.77 4.53 4.42 4.28 3.96 3.78 3.31 3.05 2.78 2.54 2.49 2.49 2.46 2.54 2.59 2.63 2.72 2.75 2.81 2.78 3.06 3.41 3.80 4.20 4.54 4.80 4.58 4.25 4.09 4.10 4.00 3.74 3.55 3.35 3.19 3.11 3.10
5.69 5.63 5.50 5.37 5.15 4.98 4.86 4.71 4.53 4.33 3.96 3.81 3.65 3.33 2.85 2.48 2.43 2.38 2.29 2.37 2.38 2.34 2.46 2.56 2.77 2.76 2.68 3.00 3.24 3.65 4.09 4.64 4.87 4.70 4.46 4.33 4.23 4.02 3.77 3.53 3.42 3.39 3.29
6.30 6.06 6.10 5.80 5.42 5.18 4.89 4.64 4.43 4.13 3.76 3.72 3.74 3.83 3.36 2.92 2.31 1.96 1.99 2.03 2.02 2.04 2.15 2.27 2.43 2.54 2.49 2.63 2.73 3.01 3.34 3.70 4.19 4.49 4.52 4.42 4.27 4.08 3.90 3.73 3.55 3.52 3.58
6.34 6.00 5.81 5.72 5.42 4.90 4.64 4.46 4.21 4.01 3.79 3.65 3.55 3.79 3.57 3.17 2.63 2.23 1.94 1.80 1.83 1.96 2.02 2.14 2.19 2.22 2.19 2.25 2.28 2.46 2.67 2.81 3.29 3.83 4.13 4.13 4.06 3.92 3.84 3.85 3.82 3.69 3.63
5.93 5.60 5.40 5.13 4.85 4.51 4.32 3.99 3.88 3.88 3.83 3.61 3.49 3.26 3.01 2.85 2.88 2.62 2.25 2.00 1.92 1.93 1.89 1.85 1.90 2.00 2.06 2.09 2.15 2.16 2.24 2.36 2.68 3.04 3.41 3.58 3.61 3.59 3.55 3.54 3.57 3.59 3.66
5.32 4.88 4.64 4.38 4.09 3.86 3.65 3.39 3.35 3.43 3.47 3.40 3.34 3.24 3.09 2.96 2.79 2.65 2.52 2.42 2.28 2.09 1.96 1.88 1.85 1.85 1.86 1.92 1.97 2.01 2.14 2.10 2.19 2.38 2.66 2.90 3.04 3.18 3.27 3.33 3.36 3.46 3.61
4.63 4.28 3.96 3.69 3.36 3.14 2.97 2.87 2.78 2.77 2.88 2.90 2.96 2.95 2.96 3.03 2.94 2.90 2.70 2.55 2.48 2.28 2.10 1.96 1.88 1.85 1.79 1.87 1.94 2.15 2.04 2.06 2.13 2.10 2.19 2.35 2.45 2.66 2.85 3.08 3.25 3.44 3.66
3.59 3.35 3.10 2.92 2.67 2.56 2.53 2.54 2.52 2.49 2.52 2.55 2.62 2.69 2.71 2.73 2.75 2.91 3.05 2.83 2.56 2.26 2.15 1.99 1.85 1.83 1.81 1.90 1.92 1.98 1.83 1.78 1.81 1.81 1.92 2.05 2.13 2.29 2.44 2.58 2.76 2.95 3.14
2.57 2.47 2.43 2.24 2.13 2.12 2.08 2.18 2.20 2.22 2.28 2.27 2.22 2.41 2.51 2.43 2.41 2.53 2.78 2.86 2.73 2.44 2.16 1.97 1.80 1.75 1.78 1.78 1.89 1.87 1.64 1.71 1.64 1.60 1.60 1.68 1.78 1.89 2.02 2.12 2.28 2.44 2.51
2.17 2.06 2.04 2.02 1.97 1.99 1.95 1.97 1.97 1.89 1.99 2.05 2.01 2.13 2.23 2.17 2.11 2.12 2.27 2.47 2.67 2.62 2.19 1.83 1.75 1.69 1.68 1.68 1.80 1.53 1.50 1.61 1.55 1.48 1.44 1.45 1.55 1.62 1.67 1.67 1.75 1.90 2.07
2.07 1.96 1.87 1.84 1.82 1.76 1.73 1.84 1.82 1.77 1.79 1.80 1.81 1.90 1.94 1.91 1.95 1.91 1.94 2.04 2.25 2.44 2.27 1.72 1.57 1.56 1.65 1.51 1.59 1.38 1.41 1.45 1.34 1.28 1.22 1.17 1.17 1.29 1.34 1.31 1.37 1.48 1.66
1.80 1.76 1.57 1.54 1.53 1.49 1.49 1.59 1.61 1.64 1.65 1.63 1.57 1.56 1.63 1.70 1.83 1.74 1.75 1.82 1.96 2.15 2.21 1.81 1.59 1.57 1.67 1.68 1.65 1.55 1.40 1.28 1.22 1.24 1.13 1.08 1.04 1.07 1.16 1.15 1.16 1.21 1.37
1.57 1.55 1.47 1.36 1.28 1.32 1.44 1.46 1.39 1.40 1.46 1.46 1.44 1.46 1.45 1.54 1.67 1.69 1.70 1.69 1.79 1.95 2.04 1.95 1.74 1.62 1.61 1.62 1.63 1.62 1.37 1.16 1.13 1.23 1.15 1.06 1.05 1.02 1.05 1.09 1.08 1.08 1.06
1.41 1.38 1.37 1.36 1.33 1.27 1.31 1.31 1.28 1.32 1.36 1.40 1.41 1.39 1.35 1.47 1.52 1.53 1.56 1.55 1.61 1.65 1.78 1.74 1.55 1.50 1.46 1.49 1.63 1.60 1.51 1.46 1.11 1.06 1.08 1.00 1.02 1.00 0.96 0.98 0.99 0.99 0.94
1.30 1.21 1.20 1.25 1.26 1.22 1.19 1.19 1.21 1.32 1.43 1.36 1.28 1.28 1.31 1.30 1.31 1.39 1.41 1.50 1.60 1.72 1.75 1.70 1.52 1.40 1.43 1.47 1.71 1.77 1.69 1.53 1.29 0.98 1.01 0.98 0.99 0.95 0.92 0.95 0.89 0.90 0.93
1.27 1.25 1.21 1.19 1.16 1.14 1.08 1.10 1.13 1.17 1.34 1.34 1.29 1.23 1.18 1.17 1.17 1.21 1.17 1.29 1.48 1.65 1.70 1.73 1.62 1.51 1.50 1.68 1.69 1.59 1.58 1.47 1.31 1.08 1.09 1.00 1.02 1.18 1.39 1.44 1.21 0.96 0.93
1.23 1.26 1.25 1.21 1.10 0.97 1.06 1.08 1.03 1.11 1.22 1.28 1.29 1.22 1.11 1.04 0.98 0.99 0.96 1.03 1.23 1.44 1.62 1.76 1.70 1.62 1.55 1.67 1.78 1.69 1.72 1.75 1.59 1.24 1.27 1.17 1.17 1.54 1.93 2.11 1.69 1.12 0.98
1.18 1.24 1.26 1.26 1.16 1.07 1.10 1.05 1.05 1.07 1.16 1.27 1.30 1.27 1.06 0.90 1.01 0.98 0.99 0.97 1.00 1.10 1.37 1.67 1.80 1.67 1.63 1.74 1.92 1.89 1.89 1.88 1.76 1.46 1.54 1.50 1.42 1.70 1.71 1.80 1.75 1.30 1.17
1.20 1.28 1.33 1.29 1.20 1.10 1.08 1.04 1.03 1.02 1.05 1.14 1.18 1.20 1.28 1.25 1.12 1.06 1.00 1.02 1.07 1.12 1.18 1.27 1.51 1.56 1.46 1.55 1.76 1.81 1.85 1.80 1.69 1.62 1.70 1.76 1.58 1.67 1.54 1.85 2.02 1.82 1.59
1.23 1.26 1.26 1.28 1.26 1.17 1.07 1.01 1.06 1.01 0.98 0.97 0.97 1.03 1.13 1.19 1.12 1.03 1.02 1.11 1.18 1.21 1.07 1.16 1.23 1.37 1.45 1.41 1.44 1.58 1.82 1.98 1.92 1.68 1.63 1.73 1.69 1.74 1.83 2.10 2.10 2.08 1.94
1.22 1.20 1.22 1.25 1.25 1.20 1.01 0.88 0.94 0.92 0.95 0.95 1.01 1.05 1.02 0.97 1.02 0.97 0.99 1.19 1.28 1.25 1.32 1.47 1.61 1.69 1.63 1.55 1.43 1.50 1.82 2.05 2.05 1.93 1.65 1.80 1.93 2.11 2.38 2.39 2.26 2.06 2.01

GEFSMA_prec_meanprecacc_348.txt.gz
Total_Precipitation_Accumulation
3.22 3.44 3.48 3.75 3.72 3.69 3.55 3.29 2.87 2.72 2.58 2.33 2.10 2.07 2.03 1.95 1.99 2.06 2.19 2.24 2.27 2.54 2.97 3.28 3.27 3.18 3.25 3.27 3.35 3.35 3.27 3.18 3.06 2.90 2.78 2.69 2.65 2.74 2.79 2.86 2.71 2.59 2.53
3.73 3.80 3.83 4.06 3.93 3.66 3.63 3.42 3.06 2.89 2.73 2.59 2.26 2.07 2.07 2.29 2.20 2.11 2.23 2.29 2.26 2.34 2.71 3.21 3.52 3.68 3.79 3.84 3.71 3.47 3.40 3.35 3.37 3.24 3.05 2.82 2.74 2.67 2.63 2.77 2.85 2.71 2.65
4.28 4.14 4.27 4.42 4.23 3.93 3.89 3.77 3.60 3.25 3.04 2.97 2.76 2.44 2.30 2.39 2.46 2.53 2.53 2.53 2.55 2.53 2.72 3.05 3.38 3.64 3.87 4.09 4.03 3.77 3.58 3.56 3.60 3.58 3.46 3.16 2.98 2.83 2.78 2.71 2.75 2.82 2.66
4.77 4.83 4.65 4.52 4.39 4.16 4.10 4.22 3.96 3.60 3.48 3.46 3.23 2.84 2.52 2.62 2.72 2.65 2.63 2.67 2.84 2.75 2.81 2.84 3.01 3.30 3.59 3.90 4.09 4.14 4.02 3.96 3.85 3.73 3.66 3.54 3.37 3.18 2.96 2.93 2.83 2.79 2.71
4.87 5.04 5.01 4.90 4.71 4.57 4.48 4.14 4.06 3.90 3.84 3.72 3.25 3.00 2.67 2.56 2.66 2.60 2.64 2.69 2.90 2.99 2.99 2.76 2.90 3.27 3.51 3.78 4.10 4.37 4.48 4.42 4.21 4.09 4.01 3.93 3.78 3.52 3.25 3.07 2.99 2.97 2.92
5.25 5.29 5.16 5.07 5.00 4.96 4.81 4.57 4.45 4.33 4.02 3.85 3.37 3.10 2.83 2.58 2.53 2.51 2.48 2.56 2.61 2.65 2.74 2.77 2.84 2.84 3.14 3.50 3.89 4.28 4.63 4.89 4.65 4.32 4.17 4.19 4.11 3.81 3.61 3.42 3.27 3.21 3.20
5.71 5.64 5.51 5.38 5.18 5.02 4.89 4.75 4.56 4.39 4.02 3.87 3.70 3.37 2.90 2.52 2.48 2.43 2.32 2.40 2.40 2.36 2.47 2.58 2.79 2.78 2.73 3.08 3.32 3.72 4.16 4.72 4.94 4.77 4.53 4.41 4.32 4.10 3.83 3.58 3.49 3.46 3.38
6.33 6.10 6.11 5.81 5.46 5.24 4.93 4.67 4.47 4.18 3.80 3.76 3.77 3.86 3.39 2.95 2.35 2.00 2.03 2.06 2.04 2.06 2.17 2.30 2.46 2.57 2.53 2.70 2.81 3.07 3.39 3.76 4.26 4.57 4.60 4.50 4.34 4.15 3.98 3.80 3.61 3.58 3.63
6.37 6.03 5.84 5.75 5.47 4.95 4.67 4.48 4.24 4.06 3.84 3.69 3.58 3.82 3.59 3.19 2.65 2.25 1.98 1.83 1.86 1.98 2.05 2.18 2.23 2.25 2.24 2.30 2.34 2.52 2.72 2.88 3.38 3.94 4.26 4.25 4.16 4.00 3.91 3.91 3.87 3.74 3.67
5.97 5.64 5.43 5.16 4.90 4.57 4.35 4.01 3.91 3.92 3.88 3.65 3.52 3.28 3.03 2.87 2.89 2.63 2.27 2.03 1.95 1.96 1.92 1.88 1.92 2.03 2.10 2.13 2.20 2.21 2.29 2.41 2.74 3.14 3.57 3.75 3.73 3.67 3.62 3.61 3.62 3.62 3.70
5.37 4.94 4.69 4.43 4.15 3.92 3.70 3.42 3.39 3.46 3.52 3.43 3.37 3.27 3.12 2.99 2.80 2.66 2.52 2.43 2.29 2.10 1.97 1.89 1.86 1.87 1.88 1.93 1.99 2.03 2.17 2.14 2.23 2.42 2.72 2.98 3.13 3.26 3.35 3.41 3.42 3.51 3.65
4.67 4.35 4.04 3.77 3.43 3.22 3.03 2.92 2.83 2.81 2.91 2.94 2.99 2.98 2.99 3.06 2.98 2.93 2.72 2.55 2.48 2.28 2.11 1.98 1.90 1.86 1.79 1.87 1.95 2.17 2.07 2.09 2.16 2.15 2.24 2.39 2.51 2.73 2.94 3.17 3.33 3.51 3.72
3.64 3.42 3.19 3.01 2.76 2.65 2.59 2.59 2.55 2.52 2.55 2.57 2.64 2.71 2.73 2.76 2.78 2.94 3.07 2.84 2.56 2.27 2.16 2.01 1.87 1.85 1.82 1.90 1.92 2.00 1.85 1.79 1.83 1.83 1.95 2.10 2.18 2.34 2.49 2.63 2.81 3.00 3.20
2.62 2.54 2.52 2.33 2.25 2.22 2.16 2.24 2.24 2.26 2.32 2.29 2.25 2.43 2.53 2.46 2.44 2.55 2.80 2.88 2.74 2.45 2.16 1.98 1.80 1.76 1.78 1.79 1.90 1.88 1.65 1.73 1.67 1.63 1.62 1.72 1.82 1.94 2.08 2.19 2.36 2.51 2.57
2.25 2.14 2.11 2.08 2.08 2.10 2.03 2.04 2.02 1.93 2.03 2.08 2.04 2.15 2.26 2.19 2.13 2.14 2.29 2.48 2.68 2.63 2.20 1.83 1.75 1.69 1.68 1.70 1.83 1.54 1.51 1.64 1.59 1.52 1.47 1.48 1.59 1.67 1.73 1.75 1.82 1.94 2.10
2.15 2.07 1.97 1.92 1.90 1.84 1.80 1.89 1.87 1.81 1.83 1.83 1.83 1.92 1.97 1.93 1.97 1.93 1.95 2.05 2.26 2.45 2.27 1.73 1.58 1.57 1.67 1.54 1.61 1.39 1.43 1.48 1.38 1.33 1.26 1.22 1.22 1.36 1.43 1.38 1.41 1.50 1.67
1.86 1.82 1.66 1.62 1.58 1.53 1.54 1.65 1.66 1.67 1.68 1.66 1.59 1.58 1.64 1.71 1.83 1.75 1.76 1.83 1.97 2.16 2.22 1.81 1.61 1.59 1.69 1.70 1.66 1.55 1.41 1.30 1.24 1.28 1.17 1.11 1.09 1.14 1.23 1.23 1.22 1.24 1.39
1.61 1.59 1.51 1.39 1.31 1.35 1.48 1.51 1.44 1.43 1.50 1.49 1.46 1.47 1.46 1.55 1.68 1.69 1.71 1.69 1.80 1.96 2.05 1.95 1.74 1.63 1.62 1.63 1.64 1.62 1.37 1.17 1.15 1.26 1.18 1.09 1.09 1.08 1.14 1.18 1.17 1.13 1.10
1.43 1.40 1.39 1.38 1.36 1.30 1.34 1.35 1.33 1.35 1.39 1.43 1.43 1.40 1.36 1.47 1.53 1.54 1.56 1.56 1.61 1.66 1.80 1.75 1.55 1.50 1.47 1.49 1.64 1.61 1.51 1.47 1.12 1.07 1.09 1.03 1.05 1.04 1.03 1.07 1.09 1.07 1.00
1.32 1.23 1.22 1.28 1.29 1.25 1.22 1.22 1.24 1.34 1.45 1.38 1.30 1.30 1.33 1.32 1.32 1.40 1.41 1.51 1.61 1.73 1.77 1.71 1.53 1.40 1.44 1.48 1.72 1.77 1.69 1.53 1.30 1.00 1.03 1.01 1.02 0.99 0.97 1.01 0.97 1.00 1.02
1.30 1.28 1.23 1.22 1.19 1.17 1.10 1.13 1.16 1.20 1.36 1.37 1.31 1.26 1.20 1.20 1.19 1.22 1.18 1.30 1.49 1.67 1.71 1.74 1.64 1.52 1.51 1.68 1.70 1.60 1.58 1.48 1.31 1.09 1.11 1.04 1.08 1.23 1.43 1.49 1.26 1.03 1.02
1.26 1.30 1.29 1.23 1.13 1.00 1.08 1.11 1.07 1.14 1.25 1.31 1.31 1.24 1.13 1.06 1.00 1.01 0.98 1.04 1.24 1.46 1.63 1.78 1.71 1.63 1.56 1.68 1.79 1.70 1.73 1.75 1.59 1.25 1.29 1.22 1.22 1.59 1.95 2.14 1.74 1.19 1.04
1.22 1.28 1.30 1.31 1.20 1.09 1.14 1.09 1.09 1.10 1.19 1.30 1.32 1.29 1.07 0.91 1.02 0.99 1.00 0.99 1.02 1.12 1.38 1.70 1.82 1.68 1.63 1.75 1.93 1.90 1.90 1.89 1.77 1.47 1.56 1.51 1.46 1.73 1.75 1.85 1.80 1.35 1.22
1.23 1.31 1.35 1.32 1.24 1.13 1.12 1.07 1.07 1.06 1.08 1.16 1.20 1.21 1.29 1.27 1.14 1.10 1.03 1.04 1.08 1.13 1.20 1.29 1.53 1.57 1.47 1.56 1.77 1.82 1.86 1.81 1.71 1.63 1.71 1.77 1.60 1.69 1.56 1.87 2.06 1.87 1.63
1.26 1.30 1.29 1.32 1.29 1.21 1.11 1.04 1.09 1.03 0.99 0.99 0.99 1.05 1.15 1.21 1.16 1.07 1.06 1.15 1.21 1.22 1.09 1.18 1.25 1.38 1.46 1.42 1.45 1.59 1.83 1.99 1.93 1.69 1.64 1.74 1.69 1.75 1.85 2.12 2.12 2.09 1.95
1.26 1.24 1.26 1.30 1.29 1.24 1.05 0.90 0.96 0.92 0.96 0.96 1.02 1.06 1.04 0.99 1.04 1.00 1.02 1.22 1.30 1.26 1.34 1.49 1.62 1.71 1.65 1.57 1.44 1.52 1.84 2.07 2.06 1.94 1.66 1.81 1.95 2.13 2.39 2.41 2.27 2.07 2.02

GEFSMA_prec_meanprecacc_354.txt.gz
Total_Precipitation_Accumulation
3.25 3.47 3.52 3.80 3.77 3.76 3.62 3.34 2.94 2.79 2.66 2.41 2.16 2.09 2.05 1.98 2.04 2.12 2.24 2.29 2.33 2.60 3.03 3.33 3.33 3.25 3.32 3.33 3.41 3.41 3.32 3.22 3.09 2.94 2.83 2.75 2.74 2.85 2.88 2.96 2.85 2.81 2.77
3.75 3.84 3.87 4.12 3.99 3.73 3.70 3.48 3.11 2.96 2.81 2.67 2.32 2.11 2.11 2.33 2.25 2.16 2.29 2.33 2.30 2.38 2.76 3.26 3.57 3.73 3.86 3.91 3.79 3.55 3.46 3.39 3.39 3.27 3.10 2.88 2.81 2.77 2.74 2.87 2.96 2.85 2.81
4.30 4.17 4.30 4.48 4.30 3.99 3.93 3.81 3.64 3.31 3.11 3.06 2.83 2.51 2.37 2.45 2.51 2.58 2.58 2.55 2.57 2.57 2.76 3.09 3.42 3.69 3.92 4.16 4.11 3.85 3.65 3.62 3.65 3.63 3.51 3.21 3.04 2.90 2.84 2.78 2.80 2.86 2.72
4.78 4.85 4.68 4.58 4.47 4.23 4.14 4.26 3.99 3.64 3.54 3.56 3.32 2.93 2.62 2.70 2.78 2.71 2.67 2.69 2.87 2.79 2.85 2.87 3.05 3.34 3.64 3.95 4.17 4.23 4.10 4.03 3.92 3.79 3.73 3.60 3.44 3.25 3.02 3.00 2.88 2.84 2.76
4.89 5.06 5.05 4.97 4.79 4.65 4.54 4.19 4.10 3.95 3.90 3.81 3.34 3.11 2.79 2.65 2.73 2.65 2.67 2.71 2.93 3.04 3.03 2.81 2.94 3.30 3.55 3.84 4.18 4.47 4.58 4.53 4.31 4.18 4.10 4.02 3.85 3.59 3.32 3.16 3.09 3.06 3.00
5.28 5.31 5.19 5.11 5.07 5.05 4.90 4.65 4.53 4.40 4.10 3.95 3.46 3.20 2.94 2.67 2.59 2.57 2.52 2.59 2.63 2.67 2.77 2.80 2.88 2.88 3.18 3.57 3.98 4.37 4.73 5.02 4.78 4.44 4.28 4.28 4.20 3.90 3.69 3.49 3.34 3.28 3.26
5.74 5.67 5.54 5.42 5.22 5.09 4.97 4.84 4.66 4.49 4.11 3.96 3.80 3.47 2.99 2.60 2.54 2.48 2.37 2.43 2.43 2.38 2.50 2.60 2.82 2.81 2.77 3.13 3.38 3.80 4.26 4.83 5.07 4.91 4.65 4.51 4.40 4.17 3.90 3.64 3.54 3.52 3.45
6.38 6.14 6.16 5.86 5.51 5.29 5.00 4.75 4.57 4.29 3.91 3.87 3.87 3.94 3.48 3.03 2.41 2.06 2.08 2.10 2.08 2.10 2.20 2.32 2.48 2.60 2.57 2.77 2.89 3.14 3.45 3.82 4.33 4.67 4.71 4.60 4.41 4.21 4.03 3.84 3.65 3.64 3.72
6.43 6.09 5.90 5.81 5.53 5.01 4.75 4.56 4.33 4.16 3.93 3.79 3.68 3.90 3.67 3.26 2.72 2.31 2.03 1.87 1.89 2.02 2.09 2.21 2.27 2.29 2.28 2.34 2.38 2.56 2.76 2.91 3.42 4.00 4.33 4.33 4.24 4.09 3.98 3.97 3.94 3.81 3.78
6.05 5.70 5.49 5.22 4.99 4.67 4.45 4.10 3.98 3.98 3.96 3.73 3.59 3.34 3.09 2.93 2.95 2.70 2.31 2.06 1.97 1.98 1.94 1.91 1.95 2.07 2.13 2.17 2.23 2.23 2.31 2.43 2.76 3.17 3.63 3.84 3.86 3.81 3.76 3.72 3.72 3.71 3.80
5.45 5.01 4.75 4.50 4.25 4.03 3.81 3.53 3.48 3.53 3.58 3.51 3.44 3.32 3.17 3.05 2.85 2.71 2.58 2.48 2.32 2.12 1.98 1.91 1.88 1.88 1.89 1.96 2.02 2.06 2.19 2.15 2.24 2.44 2.74 3.03 3.24 3.42 3.51 3.54 3.53 3.61 3.76
4.76 4.43 4.11 3.85 3.54 3.33 3.14 3.01 2.90 2.87 2.97 3.02 3.06 3.04 3.03 3.11 3.02 2.97 2.76 2.59 2.52 2.32 2.13 2.00 1.92 1.87 1.81 1.89 1.97 2.20 2.08 2.10 2.17 2.16 2.25 2.41 2.54 2.78 3.01 3.24 3.42 3.60 3.81
3.70 3.51 3.27 3.09 2.87 2.76 2.69 2.68 2.64 2.60 2.63 2.66 2.73 2.77 2.78 2.81 2.82 2.98 3.11 2.87 2.59 2.29 2.19 2.04 1.89 1.87 1.83 1.91 1.95 2.02 1.86 1.81 1.84 1.84 1.96 2.11 2.20 2.37 2.54 2.68 2.87 3.07 3.26
2.66 2.60 2.58 2.39 2.33 2.33 2.28 2.34 2.33 2.34 2.41 2.40 2.33 2.50 2.59 2.51 2.49 2.59 2.84 2.93 2.78 2.48 2.19 2.00 1.82 1.78 1.79 1.79 1.91 1.90 1.66 1.75 1.68 1.64 1.64 1.73 1.84 1.96 2.12 2.23 2.40 2.56 2.63
2.27 2.17 2.16 2.13 2.13 2.18 2.15 2.15 2.11 2.01 2.13 2.17 2.12 2.22 2.31 2.24 2.18 2.17 2.32 2.52 2.73 2.68 2.23 1.87 1.78 1.71 1.69 1.71 1.84 1.55 1.52 1.65 1.60 1.52 1.48 1.49 1.60 1.68 1.75 1.77 1.85 1.98 2.15
2.16 2.10 2.02 1.98 1.95 1.89 1.87 1.99 1.95 1.88 1.91 1.91 1.91 1.99 2.02 1.96 2.00 1.95 1.97 2.08 2.30 2.50 2.31 1.76 1.60 1.58 1.67 1.54 1.61 1.39 1.43 1.49 1.38 1.33 1.26 1.22 1.23 1.37 1.44 1.40 1.43 1.53 1.71
1.88 1.85 1.69 1.65 1.61 1.57 1.60 1.72 1.75 1.74 1.74 1.73 1.64 1.63 1.69 1.74 1.86 1.76 1.78 1.85 1.99 2.19 2.26 1.83 1.62 1.60 1.70 1.71 1.66 1.55 1.42 1.30 1.25 1.28 1.18 1.13 1.10 1.15 1.25 1.25 1.25 1.28 1.42
1.62 1.60 1.53 1.40 1.33 1.38 1.52 1.56 1.51 1.51 1.57 1.55 1.51 1.51 1.49 1.57 1.71 1.71 1.73 1.72 1.82 1.98 2.07 1.97 1.76 1.64 1.63 1.64 1.64 1.63 1.37 1.17 1.15 1.26 1.19 1.09 1.10 1.09 1.15 1.20 1.20 1.17 1.14
1.45 1.41 1.41 1.40 1.38 1.32 1.37 1.39 1.37 1.40 1.44 1.47 1.47 1.43 1.38 1.49 1.55 1.56 1.59 1.58 1.63 1.67 1.82 1.78 1.58 1.52 1.48 1.50 1.65 1.62 1.52 1.48 1.12 1.08 1.10 1.03 1.06 1.05 1.04 1.11 1.13 1.12 1.07
1.34 1.24 1.24 1.29 1.30 1.27 1.25 1.26 1.28 1.39 1.49 1.41 1.32 1.32 1.34 1.33 1.34 1.42 1.44 1.54 1.64 1.75 1.79 1.73 1.55 1.42 1.45 1.49 1.73 1.80 1.72 1.55 1.31 1.00 1.04 1.01 1.02 1.00 0.98 1.03 1.02 1.06 1.09
1.31 1.29 1.25 1.24 1.21 1.19 1.12 1.15 1.19 1.23 1.40 1.41 1.34 1.29 1.22 1.21 1.21 1.25 1.20 1.33 1.53 1.70 1.74 1.78 1.66 1.54 1.53 1.70 1.72 1.62 1.61 1.50 1.32 1.10 1.13 1.06 1.10 1.24 1.45 1.51 1.28 1.07 1.08
1.27 1.31 1.30 1.25 1.15 1.01 1.10 1.14 1.09 1.16 1.27 1.33 1.33 1.27 1.17 1.09 1.01 1.03 0.99 1.06 1.27 1.49 1.66 1.82 1.73 1.65 1.59 1.70 1.81 1.72 1.74 1.77 1.60 1.26 1.29 1.24 1.25 1.63 1.99 2.18 1.76 1.21 1.07
1.22 1.29 1.31 1.33 1.21 1.12 1.17 1.12 1.12 1.12 1.22 1.32 1.35 1.33 1.10 0.94 1.04 1.01 1.02 1.01 1.04 1.14 1.41 1.73 1.85 1.70 1.66 1.77 1.95 1.91 1.91 1.90 1.78 1.48 1.56 1.53 1.48 1.76 1.78 1.89 1.83 1.38 1.23
1.24 1.32 1.37 1.33 1.26 1.16 1.16 1.11 1.11 1.09 1.12 1.20 1.24 1.26 1.33 1.29 1.16 1.11 1.05 1.06 1.10 1.15 1.22 1.30 1.54 1.59 1.50 1.59 1.81 1.85 1.88 1.83 1.72 1.64 1.72 1.78 1.61 1.71 1.59 1.92 2.11 1.90 1.66
1.27 1.31 1.30 1.33 1.31 1.24 1.17 1.11 1.15 1.08 1.03 1.02 1.03 1.09 1.19 1.24 1.17 1.09 1.09 1.17 1.23 1.24 1.11 1.19 1.26 1.40 1.48 1.44 1.48 1.62 1.86 2.01 1.94 1.69 1.64 1.75 1.71 1.78 1.88 2.16 2.16 2.12 1.98
1.27 1.26 1.28 1.31 1.30 1.26 1.09 0.97 1.03 0.98 1.00 1.01 1.08 1.11 1.07 1.01 1.07 1.03 1.05 1.25 1.34 1.29 1.36 1.51 1.63 1.72 1.66 1.58 1.45 1.54 1.87 2.10 2.08 1.95 1.68 1.83 1.98 2.16 2.43 2.44 2.30 2.10 2.04